Project,Study,Ord_Occ,Event_Num,Cast_ID,Date_Time_UTC,Date_Time_PST,Lat_Dec,Lon_Dec,Sta_ID,Line,Sta,Depth,Pressure,PrQ,Temp1,Temp1Q,Temp2,Temp2Q,TempAve,Salt1,Salt1Q,Salt1_Corr,Salt2,Salt2Q,Salt2_Corr,SaltAve_Corr,Ox1,Ox1Q,Ox1_CruiseCorr,Ox1_StaCorr,Ox2,Ox2Q,Ox2_CruiseCorr,Ox2_StaCorr,OxAve_StaCorr,Ox1uM,Ox1uM_CruiseCorr,Ox1uM_StaCorr,Ox2uM,Ox2uM_CruiseCorr,Ox2uM_StaCorr,OxAveuM_StaCorr,FluorV,FluorQ,EstChl_CruiseCorr,EstChl_StaCorr,ISUSV,ISUSQ,EstNO3_CruiseCorr,EstNO3_StaCorr,SigThetaTS1,SigThetaTS1Q,SigThetaTS2,SigThetaTS2Q,BAT,XMiss,TransQ,pH,pHQ,SPAR,SPARQ,PAR,PARQ,PoT1,PoT2,DynHt,SVA,OxSat1,OxSat2,BTL_Depth,BTL_Temp,SaltB,OxB,OxBuM,Chl-a,Phaeo,NO3,NO2,NH4,PO4,SIL
CalCOFI,2105SH,015,,2105_015u,07-May-2021 07:35:00,06-May-2021 23:35:00,31.41489,-121.99693,090.0 090.0,090.0,090.0,510.000,514.192,,6.0009,,6.0005,,6.0007,34.2896,,34.2908,34.2906,,34.2925,34.2917,0.2788,,0.3577,0.2944,0.2829,,0.3524,0.2993,0.2969,12.123,15.1722,14.4773,12.302,18.2214,13.9819,14.2296,0.0354,,,,0.5889,,0.0000,,26.9969,,26.9976,,,,,,,,,,,5.9561,5.9557,0.8977,112.297,4.016,4.075,,,,,,,,,,,,
CalCOFI,2105SH,015,,2105_015u,07-May-2021 07:35:06,06-May-2021 23:35:06,31.41490,-121.99696,090.0 090.0,090.0,090.0,509.000,513.182,,6.0031,,6.0032,,6.0032,34.2892,,34.2904,34.2899,,34.2918,34.2911,0.2812,,0.3602,0.2970,0.2854,,0.3550,0.3019,0.2995,12.229,15.2830,14.5888,12.412,18.3359,14.0965,14.3427,0.0357,,,,0.5888,,0.0000,,26.9962,,26.9968,,,,,,,,,,,5.9584,5.9585,0.8982,112.347,4.052,4.112,509,6.003,34.2822,0.308,13.39,,,41.85,0.00,0.00,3.21,75.83
CalCOFI,2105SH,015,,2105_015u,07-May-2021 07:35:10,06-May-2021 23:35:10,31.41488,-121.99698,090.0 090.0,090.0,090.0,508.000,512.173,,6.0077,,6.0092,,6.0085,34.2879,,34.2891,34.2888,,34.2907,34.2899,0.2805,,0.3594,0.2962,0.2925,,0.3624,0.3094,0.3028,12.199,15.2516,14.5572,12.719,18.3035,14.4163,14.4868,0.0361,,,,0.5890,,0.0000,,26.9946,,26.9952,,,,,,,,,,,5.9631,5.9645,0.8985,112.487,4.042,4.215,,,,,,,,,,,,
CalCOFI,2105SH,015,,2105_015u,07-May-2021 07:35:11,06-May-2021 23:35:11,31.41488,-121.99698,090.0 090.0,090.0,090.0,507.000,511.163,,6.0131,,6.0165,,6.0148,34.2870,,34.2882,34.2876,,34.2895,34.2889,0.2805,,0.3594,0.2962,0.2880,,0.3577,0.3046,0.3004,12.198,15.2506,14.5562,12.524,18.3024,14.2132,14.3847,0.0354,,,,0.5892,,0.0000,,26.9932,,26.9933,,,,,,,,,,,5.9685,5.9719,0.8985,112.613,4.042,4.151,,,,,,,,,,,,
CalCOFI,2105SH,015,,2105_015u,07-May-2021 07:35:11,06-May-2021 23:35:11,31.41488,-121.99698,090.0 090.0,090.0,090.0,506.000,510.154,,6.0164,,6.0222,,6.0193,34.2868,,34.2880,34.2874,,34.2893,34.2887,0.2857,,0.3649,0.3017,0.2960,,0.3660,0.3130,0.3074,12.426,15.4889,14.7960,12.873,18.5486,14.5767,14.6864,0.0356,,,,0.5894,,0.0000,,26.9926,,26.9923,,,,,,,,,,,5.9719,5.9777,0.8985,112.660,4.118,4.267,,,,,,,,,,,,
CalCOFI,2105SH,015,,2105_015u,07-May-2021 07:35:12,06-May-2021 23:35:12,31.41489,-121.99698,090.0 090.0,090.0,090.0,505.000,509.145,,6.0198,,6.0248,,6.0223,34.2865,,34.2877,34.2871,,34.2890,34.2884,0.2919,,0.3714,0.3083,0.2981,,0.3682,0.3153,0.3118,12.694,15.7691,15.0779,12.963,18.8381,14.6705,14.8742,0.0361,,,,0.5895,,0.0000,,26.9919,,26.9918,,,,,,,,,,,5.9754,5.9803,0.8985,112.712,4.207,4.297,,,,,,,,,,,,
CalCOFI,2105SH,015,,2105_015u,07-May-2021 07:35:13,06-May-2021 23:35:13,31.41489,-121.99698,090.0 090.0,090.0,090.0,504.000,508.135,,6.0222,,6.0261,,6.0242,34.2863,,34.2875,34.2876,,34.2895,34.2885,0.2869,,0.3661,0.3030,0.2917,,0.3615,0.3085,0.3058,12.476,15.5412,14.8486,12.682,18.6026,14.3778,14.6132,0.0362,,,,0.5897,,0.0000,,26.9915,,26.9920,,,,,,,,,,,5.9778,5.9818,0.8985,112.747,4.135,4.204,,,,,,,,,,,,
CalCOFI,2105SH,015,,2105_015u,07-May-2021 07:35:14,06-May-2021 23:35:14,31.41488,-121.99698,090.0 090.0,090.0,090.0,503.000,507.126,,6.0330,,6.0455,,6.0393,34.2846,,34.2858,34.2841,,34.2860,34.2859,0.2866,,0.3658,0.3027,0.2979,,0.3680,0.3150,0.3089,12.462,15.5266,14.8339,12.956,18.5875,14.6632,14.7486,0.0359,,,,0.5900,,0.0000,,26.9887,,26.9867,,,,,,,,,,,5.9887,6.0012,0.8985,113.001,4.132,4.296,,,,,,,,,,,,
CalCOFI,2105SH,015,,2105_015u,07-May-2021 07:35:15,06-May-2021 23:35:15,31.41488,-121.99698,090.0 090.0,090.0,090.0,502.000,506.116,,6.0458,,6.0531,,6.0495,34.2828,,34.2840,34.2836,,34.2855,34.2848,0.2943,,0.3739,0.3109,0.3010,,0.3712,0.3183,0.3146,12.799,15.8789,15.1884,13.091,18.9515,14.8038,14.9961,0.0366,,,,0.5903,,0.0000,,26.9857,,26.9854,,,,,,,,,,,6.0016,6.0088,0.8985,113.288,4.244,4.342,,,,,,,,,,,,
CalCOFI,2105SH,015,,2105_015u,07-May-2021 07:35:16,06-May-2021 23:35:16,31.41488,-121.99698,090.0 090.0,090.0,090.0,501.000,505.107,,6.0510,,6.0526,,6.0518,34.2828,,34.2840,34.2831,,34.2850,34.2845,0.2910,,0.3704,0.3074,0.2951,,0.3651,0.3121,0.3098,12.655,15.7283,15.0369,12.834,18.7959,14.5361,14.7865,0.0354,,,,0.5906,,0.0000,,26.9851,,26.9851,,,,,,,,,,,6.0068,6.0084,0.8985,113.339,4.197,4.257,,,,,,,,,,,,
CalCOFI,2105SH,015,,2105_015u,07-May-2021 07:35:17,06-May-2021 23:35:17,31.41488,-121.99699,090.0 090.0,090.0,090.0,500.000,504.097,,6.0512,,6.0588,,6.0550,34.2826,,34.2838,34.2830,,34.2849,34.2844,0.2893,,0.3686,0.3056,0.2995,,0.3696,0.3167,0.3112,12.583,15.6531,14.9612,13.024,18.7182,14.7340,14.8476,0.0353,,,,0.5909,,0.0000,,26.9849,,26.9842,,,,,,,,,,,6.0071,6.0147,0.8985,113.343,4.173,4.320,,,,,,,,,,,,
CalCOFI,2105SH,015,,2105_015u,07-May-2021 07:35:18,06-May-2021 23:35:18,31.41488,-121.99700,090.0 090.0,090.0,090.0,499.000,503.088,,6.0510,,6.0593,,6.0552,34.2831,,34.2843,34.2828,,34.2847,34.2845,0.2893,,0.3686,0.3056,0.3075,,0.3779,0.3251,0.3154,12.580,15.6499,14.9580,13.371,18.7149,15.0955,15.0268,0.0351,,,,0.5912,,0.0000,,26.9852,,26.9840,,,,,,,,,,,6.0070,6.0152,0.8985,113.297,4.172,4.435,,,,,,,,,,,,
CalCOFI,2105SH,015,,2105_015u,07-May-2021 07:35:19,06-May-2021 23:35:19,31.41488,-121.99700,090.0 090.0,090.0,090.0,498.000,502.078,,6.0517,,6.0638,,6.0578,34.2827,,34.2839,34.2823,,34.2842,34.2841,0.2940,,0.3736,0.3106,0.3010,,0.3712,0.3183,0.3145,12.783,15.8621,15.1716,13.089,18.9342,14.8017,14.9867,0.0360,,,,0.5916,,0.0000,,26.9848,,26.9830,,,,,,,,,,,6.0078,6.0199,0.8985,113.321,4.240,4.342,,,,,,,,,,,,
CalCOFI,2105SH,015,,2105_015u,07-May-2021 07:35:20,06-May-2021 23:35:20,31.41488,-121.99700,090.0 090.0,090.0,090.0,497.000,501.069,,6.0535,,6.0638,,6.0587,34.2826,,34.2838,34.2821,,34.2840,34.2839,0.2995,,0.3793,0.3164,0.2995,,0.3696,0.3167,0.3166,13.024,16.1141,15.4251,13.025,19.1945,14.7351,15.0801,0.0364,,,,0.5919,,0.0000,,26.9845,,26.9828,,,,,,,,,,,6.0097,6.0199,0.8985,113.339,4.320,4.321,,,,,,,,,,,,
CalCOFI,2105SH,015,,2105_015u,07-May-2021 07:35:21,06-May-2021 23:35:21,31.41488,-121.99702,090.0 090.0,090.0,090.0,496.000,500.060,,6.0552,,6.0631,,6.0592,34.2819,,34.2831,34.2822,,34.2841,34.2836,0.2938,,0.3734,0.3104,0.2995,,0.3696,0.3167,0.3136,12.774,15.8527,15.1621,13.024,18.9245,14.7340,14.9481,0.0354,,,,0.5923,,0.0000,,26.9837,,26.9830,,,,,,,,,,,6.0115,6.0193,0.8985,113.400,4.237,4.321,,,,,,,,,,,,
CalCOFI,2105SH,015,,2105_015u,07-May-2021 07:35:22,06-May-2021 23:35:22,31.41488,-121.99702,090.0 090.0,090.0,090.0,495.000,499.050,,6.0636,,6.0651,,6.0644,34.2803,,34.2815,34.2823,,34.2842,34.2829,0.2936,,0.3731,0.3102,0.3046,,0.3749,0.3221,0.3162,12.765,15.8433,15.1526,13.247,18.9147,14.9663,15.0595,0.0366,,,,0.5926,,0.0000,,26.9815,,26.9828,,,,,,,,,,,6.0199,6.0214,0.8985,113.611,4.235,4.395,,,,,,,,,,,,
CalCOFI,2105SH,015,,2105_015u,07-May-2021 07:35:23,06-May-2021 23:35:23,31.41488,-121.99702,090.0 090.0,090.0,090.0,494.000,498.041,,6.0674,,6.0759,,6.0717,34.2807,,34.2819,34.2812,,34.2831,34.2825,0.2960,,0.3757,0.3127,0.3106,,0.3811,0.3284,0.3206,12.872,15.9552,15.2652,13.508,19.0303,15.2382,15.2517,0.0355,,,,0.5930,,0.0000,,26.9812,,26.9806,,,,,,,,,,,6.0238,6.0323,0.8985,113.623,4.271,4.483,,,,,,,,,,,,
CalCOFI,2105SH,015,,2105_015u,07-May-2021 07:35:24,06-May-2021 23:35:24,31.41488,-121.99702,090.0 090.0,090.0,090.0,493.000,497.032,,6.0773,,6.0889,,6.0831,34.2793,,34.2805,34.2807,,34.2826,34.2816,0.3028,,0.3828,0.3200,0.3121,,0.3827,0.3300,0.3250,13.169,16.2657,15.5776,13.571,19.3511,15.3039,15.4408,0.0354,,,,0.5935,,0.0000,,26.9789,,26.9785,,,,,,,,,,,6.0338,6.0453,0.8985,113.840,4.370,4.505,,,,,,,,,,,,
CalCOFI,2105SH,015,,2105_015u,07-May-2021 07:35:25,06-May-2021 23:35:25,31.41488,-121.99702,090.0 090.0,090.0,090.0,492.000,496.022,,6.1011,,6.1128,,6.1070,34.2776,,34.2788,34.2781,,34.2800,34.2794,0.3048,,0.3849,0.3221,0.3134,,0.3840,0.3314,0.3268,13.255,16.3556,15.6681,13.631,19.4439,15.3664,15.5173,0.0363,,,,0.5941,,0.0000,,26.9745,,26.9734,,,,,,,,,,,6.0576,6.0692,0.8985,114.264,4.401,4.527,,,,,,,,,,,,
CalCOFI,2105SH,015,,2105_015u,07-May-2021 07:35:26,06-May-2021 23:35:26,31.41488,-121.99702,090.0 090.0,090.0,090.0,491.000,495.013,,6.0975,,6.1194,,6.1085,34.2781,,34.2793,34.2763,,34.2782,34.2788,0.3063,,0.3864,0.3237,0.3192,,0.3900,0.3375,0.3306,13.319,16.4225,15.7354,13.879,19.5131,15.6247,15.6801,0.0358,,,,0.5946,,0.0000,,26.9753,,26.9712,,,,,,,,,,,6.0541,6.0759,0.8985,114.169,4.422,4.610,,,,,,,,,,,,
CalCOFI,2105SH,015,,2105_015u,07-May-2021 07:35:27,06-May-2021 23:35:27,31.41488,-121.99702,090.0 090.0,090.0,090.0,490.000,494.003,,6.1059,,6.1329,,6.1194,34.2773,,34.2785,34.2749,,34.2768,34.2777,0.3031,,0.3831,0.3203,0.3175,,0.3883,0.3357,0.3280,13.181,16.2782,15.5902,13.808,19.3640,15.5508,15.5705,0.0357,,,,0.5950,,0.0000,,26.9736,,26.9683,,,,,,,,,,,6.0626,6.0895,0.8985,114.324,4.377,4.588,,,,,,,,,,,,
CalCOFI,2105SH,015,,2105_015u,07-May-2021 07:35:28,06-May-2021 23:35:28,31.41488,-121.99702,090.0 090.0,090.0,090.0,489.000,492.994,,6.1093,,6.1341,,6.1217,34.2760,,34.2772,34.2753,,34.2772,34.2772,0.3087,,0.3889,0.3262,0.3232,,0.3942,0.3417,0.3340,13.424,16.5322,15.8458,14.057,19.6265,15.8101,15.8280,0.0361,,,,0.5953,,0.0000,,26.9722,,26.9685,,,,,,,,,,,6.0660,6.0908,0.8985,114.452,4.458,4.671,,,,,,,,,,,,
CalCOFI,2105SH,015,,2105_015u,07-May-2021 07:35:28,06-May-2021 23:35:28,31.41488,-121.99702,090.0 090.0,090.0,090.0,488.000,491.985,,6.1170,,6.1322,,6.1246,34.2755,,34.2767,34.2765,,34.2784,34.2776,0.3131,,0.3935,0.3309,0.3213,,0.3922,0.3397,0.3353,13.616,16.7330,16.0478,13.973,19.8338,15.7226,15.8852,0.0355,,,,0.5956,,0.0000,,26.9708,,26.9697,,,,,,,,,,,6.0738,6.0890,0.8985,114.577,4.522,4.643,,,,,,,,,,,,
CalCOFI,2105SH,015,,2105_015u,07-May-2021 07:35:29,06-May-2021 23:35:29,31.41488,-121.99702,090.0 090.0,090.0,090.0,487.000,490.975,,6.1345,,6.1423,,6.1384,34.2732,,34.2744,34.2757,,34.2776,34.2760,0.3140,,0.3945,0.3319,0.3165,,0.3872,0.3346,0.3333,13.655,16.7737,16.0888,13.762,19.8759,15.5028,15.7958,0.0360,,,,0.5960,,0.0000,,26.9667,,26.9677,,,,,,,,,,,6.0913,6.0991,0.8985,114.965,4.537,4.574,,,,,,,,,,,,
CalCOFI,2105SH,015,,2105_015u,07-May-2021 07:35:31,06-May-2021 23:35:31,31.41486,-121.99704,090.0 090.0,090.0,090.0,486.000,489.966,,6.1482,,6.1518,,6.1500,34.2726,,34.2738,34.2746,,34.2765,34.2752,0.3139,,0.3944,0.3318,0.3227,,0.3937,0.3411,0.3365,13.650,16.7685,16.0836,14.034,19.8705,15.7862,15.9349,0.0360,,,,0.5966,,0.0000,,26.9645,,26.9656,,,,,,,,,,,6.1051,6.1086,0.8985,115.180,4.537,4.665,,,,,,,,,,,,
CalCOFI,2105SH,015,,2105_015u,07-May-2021 07:35:32,06-May-2021 23:35:32,31.41486,-121.99704,090.0 090.0,090.0,090.0,485.000,488.957,,6.1514,,6.1493,,6.1504,34.2728,,34.2740,34.2745,,34.2764,34.2752,0.3115,,0.3919,0.3292,0.3249,,0.3959,0.3435,0.3364,13.548,16.6619,15.9763,14.129,19.7604,15.8852,15.9308,0.0354,,,,0.5971,,0.0000,,26.9643,,26.9659,,,,,,,,,,,6.1083,6.1062,0.8985,115.187,4.503,4.696,,,,,,,,,,,,
CalCOFI,2105SH,015,,2105_015u,07-May-2021 07:35:32,06-May-2021 23:35:32,31.41488,-121.99704,090.0 090.0,090.0,090.0,484.000,487.947,,6.1463,,6.1541,,6.1502,34.2739,,34.2751,34.2740,,34.2759,34.2755,0.3164,,0.3970,0.3344,0.3196,,0.3904,0.3379,0.3362,13.761,16.8845,16.2003,13.900,19.9904,15.6466,15.9235,0.0359,,,,0.5975,,0.0000,,26.9658,,26.9648,,,,,,,,,,,6.1033,6.1111,0.8985,115.026,4.574,4.621,,,,,,,,,,,,
CalCOFI,2105SH,015,,2105_015u,07-May-2021 07:35:33,06-May-2021 23:35:33,31.41488,-121.99704,090.0 090.0,090.0,090.0,483.000,486.938,,6.1460,,6.1558,,6.1509,34.2736,,34.2748,34.2740,,34.2759,34.2754,0.3216,,0.4024,0.3400,0.3206,,0.3915,0.3389,0.3395,13.986,17.1198,16.4370,13.941,20.2334,15.6893,16.0632,0.0365,,,,0.5979,,0.0000,,26.9655,,26.9646,,,,,,,,,,,6.1031,6.1129,0.8985,115.036,4.649,4.635,,,,,,,,,,,,
CalCOFI,2105SH,015,,2105_015u,07-May-2021 07:35:34,06-May-2021 23:35:34,31.41488,-121.99704,090.0 090.0,090.0,090.0,482.000,485.929,,6.1521,,6.1547,,6.1534,34.2727,,34.2739,34.2745,,34.2764,34.2752,0.3177,,0.3984,0.3358,0.3275,,0.3986,0.3462,0.3410,13.814,16.9400,16.2561,14.242,20.0477,16.0029,16.1295,0.0360,,,,0.5982,,0.0000,,26.9640,,26.9651,,,,,,,,,,,6.1093,6.1119,0.8985,115.170,4.592,4.734,,,,,,,,,,,,
CalCOFI,2105SH,015,,2105_015u,07-May-2021 07:35:35,06-May-2021 23:35:35,31.41487,-121.99704,090.0 090.0,090.0,090.0,481.000,484.919,,6.1570,,6.1634,,6.1602,34.2725,,34.2737,34.2739,,34.2758,34.2748,0.3192,,0.3999,0.3374,0.3293,,0.4005,0.3481,0.3428,13.880,17.0090,16.3255,14.320,20.1189,16.0841,16.2048,0.0351,,,,0.5986,,0.0000,,26.9632,,26.9635,,,,,,,,,,,6.1143,6.1206,0.8985,115.235,4.614,4.761,,,,,,,,,,,,
CalCOFI,2105SH,015,,2105_015u,07-May-2021 07:35:36,06-May-2021 23:35:36,31.41486,-121.99704,090.0 090.0,090.0,090.0,480.000,483.910,,6.1676,,6.1724,,6.1700,34.2714,,34.2726,34.2732,,34.2751,34.2739,0.3250,,0.4060,0.3436,0.3237,,0.3947,0.3422,0.3429,14.135,17.2755,16.5938,14.075,20.3943,15.8289,16.2114,0.0353,,,,0.5991,,0.0000,,26.9610,,26.9618,,,,,,,,,,,6.1249,6.1297,0.8985,115.441,4.700,4.681,,,,,,,,,,,,
CalCOFI,2105SH,015,,2105_015u,07-May-2021 07:35:37,06-May-2021 23:35:37,31.41486,-121.99704,090.0 090.0,090.0,090.0,479.000,482.901,,6.1708,,6.1802,,6.1755,34.2720,,34.2732,34.2723,,34.2742,34.2737,0.3197,,0.4004,0.3380,0.3274,,0.3985,0.3461,0.3421,13.902,17.0320,16.3487,14.240,20.1427,16.0008,16.1748,0.0354,,,,0.5995,,0.0000,,26.9611,,26.9601,,,,,,,,,,,6.1282,6.1376,0.8985,115.424,4.623,4.737,,,,,,,,,,,,
CalCOFI,2105SH,015,,2105_015u,07-May-2021 07:35:38,06-May-2021 23:35:38,31.41487,-121.99705,090.0 090.0,090.0,090.0,478.000,481.891,,6.1811,,6.1882,,6.1847,34.2698,,34.2710,34.2718,,34.2737,34.2724,0.3196,,0.4003,0.3379,0.3351,,0.4065,0.3542,0.3461,13.900,17.0299,16.3466,14.574,20.1405,16.3487,16.3477,0.0356,,,,0.5999,,0.0000,,26.9580,,26.9587,,,,,,,,,,,6.1386,6.1456,0.8985,115.707,4.623,4.849,,,,,,,,,,,,
CalCOFI,2105SH,015,,2105_015u,07-May-2021 07:35:39,06-May-2021 23:35:39,31.41488,-121.99706,090.0 090.0,090.0,090.0,477.000,480.882,,6.1839,,6.1905,,6.1872,34.2703,,34.2715,34.2710,,34.2729,34.2722,0.3202,,0.4010,0.3385,0.3293,,0.4005,0.3481,0.3433,13.925,17.0560,16.3729,14.322,20.1675,16.0862,16.2296,0.0359,,,,0.6003,,0.0000,,26.9580,,26.9577,,,,,,,,,,,6.1415,6.1480,0.8985,115.700,4.632,4.765,,,,,,,,,,,,
CalCOFI,2105SH,015,,2105_015u,07-May-2021 07:35:40,06-May-2021 23:35:40,31.41488,-121.99706,090.0 090.0,090.0,090.0,476.000,479.873,,6.1867,,6.1880,,6.1874,34.2707,,34.2719,34.2721,,34.2740,34.2730,0.3279,,0.4090,0.3467,0.3279,,0.3990,0.3466,0.3467,14.259,17.4052,16.7242,14.262,20.5283,16.0237,16.3740,0.0356,,,,0.6006,,0.0000,,26.9580,,26.9590,,,,,,,,,,,6.1443,6.1456,0.8985,115.691,4.744,4.745,,,,,,,,,,,,
CalCOFI,2105SH,015,,2105_015u,07-May-2021 07:35:41,06-May-2021 23:35:41,31.41487,-121.99706,090.0 090.0,090.0,090.0,475.000,478.863,,6.1865,,6.1880,,6.1873,34.2710,,34.2722,34.2721,,34.2740,34.2731,0.3261,,0.4071,0.3448,0.3282,,0.3993,0.3469,0.3459,14.183,17.3257,16.6443,14.272,20.4462,16.0341,16.3392,0.0365,,,,0.6010,,0.0000,,26.9582,,26.9589,,,,,,,,,,,6.1442,6.1458,0.8985,115.655,4.718,4.748,,,,,,,,,,,,
CalCOFI,2105SH,015,,2105_015u,07-May-2021 07:35:42,06-May-2021 23:35:42,31.41486,-121.99706,090.0 090.0,090.0,090.0,474.000,477.854,,6.1909,,6.1937,,6.1923,34.2697,,34.2709,34.2711,,34.2730,34.2720,0.3238,,0.4047,0.3423,0.3331,,0.4044,0.3521,0.3472,14.081,17.2191,16.5370,14.484,20.3360,16.2550,16.3960,0.0365,,,,0.6013,,0.0000,,26.9566,,26.9574,,,,,,,,,,,6.1487,6.1515,0.8985,115.792,4.685,4.819,,,,,,,,,,,,
CalCOFI,2105SH,015,,2105_015u,07-May-2021 07:35:43,06-May-2021 23:35:43,31.41486,-121.99706,090.0 090.0,090.0,090.0,473.000,476.845,,6.1914,,6.1978,,6.1946,34.2701,,34.2713,34.2711,,34.2730,34.2722,0.3238,,0.4047,0.3423,0.3377,,0.4092,0.3569,0.3496,14.081,17.2191,16.5370,14.687,20.3360,16.4664,16.5017,0.0349,,,,0.6016,,0.0000,,26.9568,,26.9569,,,,,,,,,,,6.1493,6.1557,0.8985,115.761,4.685,4.887,,,,,,,,,,,,
CalCOFI,2105SH,015,,2105_015u,07-May-2021 07:35:44,06-May-2021 23:35:44,31.41486,-121.99706,090.0 090.0,090.0,090.0,472.000,475.836,,6.1903,,6.2015,,6.1959,34.2706,,34.2718,34.2704,,34.2723,34.2721,0.3247,,0.4057,0.3433,0.3353,,0.4067,0.3544,0.3489,14.119,17.2588,16.5769,14.580,20.3771,16.3550,16.4660,0.0358,,,,0.6019,,0.0000,,26.9574,,26.9558,,,,,,,,,,,6.1483,6.1595,0.8985,115.695,4.697,4.852,,,,,,,,,,,,
CalCOFI,2105SH,015,,2105_015u,07-May-2021 07:35:44,06-May-2021 23:35:44,31.41486,-121.99706,090.0 090.0,090.0,090.0,471.000,474.826,,6.1926,,6.1997,,6.1962,34.2702,,34.2714,34.2709,,34.2728,34.2721,0.3309,,0.4122,0.3499,0.3321,,0.4034,0.3510,0.3505,14.389,17.5411,16.8609,14.444,20.6687,16.2133,16.5371,0.0357,,,,0.6021,,0.0000,,26.9567,,26.9564,,,,,,,,,,,6.1507,6.1578,0.8985,115.741,4.787,4.807,,,,,,,,,,,,
CalCOFI,2105SH,015,,2105_015u,07-May-2021 07:35:45,06-May-2021 23:35:45,31.41486,-121.99706,090.0 090.0,090.0,090.0,470.000,473.817,,6.2066,,6.2016,,6.2041,34.2688,,34.2700,34.2713,,34.2732,34.2716,0.3342,,0.4156,0.3534,0.3382,,0.4097,0.3575,0.3555,14.535,17.6937,17.0145,14.707,20.8264,16.4873,16.7509,0.0354,,,,0.6025,,0.0000,,26.9539,,26.9565,,,,,,,,,,,6.1647,6.1598,0.8985,116.014,4.837,4.894,,,,,,,,,,,,
CalCOFI,2105SH,015,,2105_015u,07-May-2021 07:35:46,06-May-2021 23:35:46,31.41486,-121.99706,090.0 090.0,090.0,090.0,469.000,472.808,,6.2173,,6.2238,,6.2206,34.2680,,34.2692,34.2698,,34.2717,34.2705,0.3286,,0.4097,0.3474,0.3469,,0.4187,0.3666,0.3570,14.292,17.4397,16.7589,15.085,20.5639,16.8811,16.8200,0.0350,,,,0.6029,,0.0000,,26.9519,,26.9525,,,,,,,,,,,6.1755,6.1820,0.8985,116.200,4.758,5.023,,,,,,,,,,,,
CalCOFI,2105SH,015,,2105_015u,07-May-2021 07:35:47,06-May-2021 23:35:47,31.41486,-121.99706,090.0 090.0,090.0,090.0,468.000,471.798,,6.2278,,6.2311,,6.2295,34.2672,,34.2684,34.2681,,34.2700,34.2692,0.3350,,0.4164,0.3543,0.3469,,0.4187,0.3666,0.3605,14.568,17.7282,17.0492,15.087,20.8620,16.8831,16.9662,0.0354,,,,0.6034,,0.0000,,26.9499,,26.9502,,,,,,,,,,,6.1860,6.1893,0.8985,116.384,4.851,5.024,,,,,,,,,,,,
CalCOFI,2105SH,015,,2105_015u,07-May-2021 07:35:48,06-May-2021 23:35:48,31.41486,-121.99706,090.0 090.0,090.0,090.0,467.000,470.789,,6.2307,,6.2475,,6.2391,34.2677,,34.2689,34.2664,,34.2683,34.2686,0.3366,,0.4181,0.3560,0.3483,,0.4202,0.3681,0.3621,14.638,17.8014,17.1229,15.147,20.9376,16.9456,17.0343,0.0354,,,,0.6038,,0.0000,,26.9499,,26.9467,,,,,,,,,,,6.1890,6.2058,0.8985,116.374,4.874,5.046,,,,,,,,,,,,
CalCOFI,2105SH,015,,2105_015u,07-May-2021 07:35:49,06-May-2021 23:35:49,31.41486,-121.99706,090.0 090.0,090.0,090.0,466.000,469.780,,6.2382,,6.2625,,6.2504,34.2651,,34.2663,34.2650,,34.2669,34.2666,0.3402,,0.4219,0.3598,0.3505,,0.4224,0.3704,0.3651,14.794,17.9644,17.2870,15.241,21.1061,17.0436,17.1653,0.0354,,,,0.6044,,0.0000,,26.9469,,26.9437,,,,,,,,,,,6.1966,6.2208,0.8985,116.648,4.927,5.079,,,,,,,,,,,,
CalCOFI,2105SH,015,,2105_015u,07-May-2021 07:35:51,06-May-2021 23:35:51,31.41486,-121.99706,090.0 090.0,090.0,090.0,465.000,468.771,,6.2518,,6.2670,,6.2594,34.2631,,34.2643,34.2654,,34.2673,34.2658,0.3397,,0.4214,0.3593,0.3546,,0.4267,0.3747,0.3670,14.773,17.9425,17.2649,15.420,21.0834,17.2300,17.2475,0.0357,,,,0.6050,,0.0000,,26.9435,,26.9434,,,,,,,,,,,6.2102,6.2254,0.8985,116.964,4.922,5.139,,,,,,,,,,,,
CalCOFI,2105SH,015,,2105_015u,07-May-2021 07:35:52,06-May-2021 23:35:52,31.41486,-121.99706,090.0 090.0,090.0,090.0,464.000,467.761,,6.2558,,6.2726,,6.2642,34.2639,,34.2651,34.2635,,34.2654,34.2653,0.3446,,0.4265,0.3645,0.3483,,0.4202,0.3681,0.3663,14.986,18.1652,17.4889,15.148,21.3134,16.9467,17.2178,0.0347,,,,0.6056,,0.0000,,26.9437,,26.9411,,,,,,,,,,,6.2143,6.2310,0.8985,116.944,4.993,5.049,,,,,,,,,,,,
CalCOFI,2105SH,015,,2105_015u,07-May-2021 07:35:53,06-May-2021 23:35:53,31.41486,-121.99706,090.0 090.0,090.0,090.0,463.000,466.752,,6.2638,,6.2764,,6.2701,34.2633,,34.2645,34.2642,,34.2661,34.2653,0.3451,,0.4270,0.3650,0.3528,,0.4248,0.3728,0.3689,15.007,18.1871,17.5110,15.344,21.3361,17.1509,17.3310,0.0360,,,,0.6061,,0.0000,,26.9421,,26.9412,,,,,,,,,,,6.2223,6.2349,0.8985,117.080,5.001,5.115,,,,,,,,,,,,
CalCOFI,2105SH,015,,2105_015u,07-May-2021 07:35:53,06-May-2021 23:35:53,31.41486,-121.99706,090.0 090.0,090.0,090.0,462.000,465.743,,6.2599,,6.2802,,6.2701,34.2657,,34.2669,34.2643,,34.2662,34.2666,0.3442,,0.4261,0.3641,0.3591,,0.4314,0.3795,0.3718,14.966,18.1443,17.4679,15.619,21.2918,17.4373,17.4526,0.0358,,,,0.6065,,0.0000,,26.9445,,26.9408,,,,,,,,,,,6.2185,6.2388,0.8985,116.841,4.987,5.207,,,,,,,,,,,,
CalCOFI,2105SH,015,,2105_015u,07-May-2021 07:35:54,06-May-2021 23:35:54,31.41486,-121.99706,090.0 090.0,090.0,090.0,461.000,464.734,,6.2645,,6.2802,,6.2724,34.2634,,34.2646,34.2635,,34.2654,34.2650,0.3505,,0.4327,0.3708,0.3564,,0.4286,0.3766,0.3737,15.241,18.4317,17.7572,15.501,21.5888,17.3144,17.5358,0.0365,,,,0.6070,,0.0000,,26.9421,,26.9401,,,,,,,,,,,6.2232,6.2389,0.8985,117.054,5.079,5.168,,,,,,,,,,,,
CalCOFI,2105SH,015,,2105_015u,07-May-2021 07:35:55,06-May-2021 23:35:55,31.41486,-121.99706,090.0 090.0,090.0,090.0,460.000,463.725,,6.2723,,6.2782,,6.2753,34.2640,,34.2652,34.2644,,34.2663,34.2658,0.3512,,0.4334,0.3715,0.3579,,0.4301,0.3782,0.3749,15.274,18.4662,17.7919,15.566,21.6245,17.3821,17.5870,0.0362,,,,0.6075,,0.0000,,26.9415,,26.9411,,,,,,,,,,,6.2311,6.2370,0.8985,117.104,5.091,5.189,,,,,,,,,,,,
CalCOFI,2105SH,015,,2105_015u,07-May-2021 07:35:56,06-May-2021 23:35:56,31.41486,-121.99708,090.0 090.0,090.0,090.0,459.000,462.715,,6.2853,,6.2901,,6.2877,34.2624,,34.2636,34.2645,,34.2664,34.2650,0.3556,,0.4380,0.3762,0.3666,,0.4391,0.3874,0.3818,15.464,18.6649,17.9918,15.945,21.8297,17.7769,17.8844,0.0363,,,,0.6082,,0.0000,,26.9386,,26.9397,,,,,,,,,,,6.2442,6.2490,0.8985,117.378,5.156,5.317,,,,,,,,,,,,
CalCOFI,2105SH,015,,2105_015u,07-May-2021 07:35:57,06-May-2021 23:35:57,31.41486,-121.99708,090.0 090.0,090.0,090.0,458.000,461.706,,6.3198,,6.3242,,6.3220,34.2591,,34.2603,34.2623,,34.2642,34.2623,0.3600,,0.4426,0.3809,0.3731,,0.4459,0.3942,0.3876,15.658,18.8677,18.1958,16.227,22.0392,18.0707,18.1333,0.0360,,,,0.6091,,0.0000,,26.9316,,26.9335,,,,,,,,,,,6.2787,6.2830,0.8985,118.065,5.225,5.415,,,,,,,,,,,,
CalCOFI,2105SH,015,,2105_015u,07-May-2021 07:35:58,06-May-2021 23:35:58,31.41486,-121.99708,090.0 090.0,090.0,090.0,457.000,460.697,,6.3339,,6.3611,,6.3475,34.2596,,34.2608,34.2594,,34.2613,34.2611,0.3614,,0.4441,0.3824,0.3762,,0.4491,0.3975,0.3900,15.715,18.9273,18.2558,16.360,22.1008,18.2093,18.2326,0.0349,,,,0.6100,,0.0000,,26.9301,,26.9264,,,,,,,,,,,6.2928,6.3199,0.8985,118.206,5.245,5.464,,,,,,,,,,,,
CalCOFI,2105SH,015,,2105_015u,07-May-2021 07:35:59,06-May-2021 23:35:59,31.41487,-121.99708,090.0 090.0,090.0,090.0,456.000,459.688,,6.3453,,6.3780,,6.3617,34.2597,,34.2609,34.2591,,34.2610,34.2610,0.3661,,0.4490,0.3874,0.3815,,0.4546,0.4030,0.3952,15.923,19.1447,18.4746,16.593,22.3254,18.4520,18.4633,0.0355,,,,0.6106,,0.0000,,26.9287,,26.9240,,,,,,,,,,,6.3042,6.3368,0.8985,118.335,5.316,5.544,,,,,,,,,,,,
CalCOFI,2105SH,015,,2105_015u,07-May-2021 07:36:00,06-May-2021 23:36:00,31.41488,-121.99708,090.0 090.0,090.0,090.0,455.000,458.678,,6.3460,,6.3851,,6.3656,34.2582,,34.2594,34.2586,,34.2605,34.2600,0.3684,,0.4514,0.3898,0.3806,,0.4536,0.4021,0.3960,16.023,19.2492,18.5798,16.551,22.4334,18.4082,18.4940,0.0355,,,,0.6112,,0.0000,,26.9273,,26.9227,,,,,,,,,,,6.3050,6.3440,0.8985,118.445,5.350,5.531,,,,,,,,,,,,